Hourly Data Report for July 06, 2021

IQALUIT CLIMATE
NUNAVUT
Current Station Operator: ECCC - MSC

63°44'50.000" N
68°32'40.000" W
33.50 m
2402592
71321
XFB

Download Data

Hourly Data (July 2021)
Hourly Data Report for July 6, 2021
TIME
LST
Temp Definition
°C
Dew Point Definition
°C
Rel Hum Definition
%
Precip. Amount Definition
mm

Wind Dir Definition
10's deg

Wind Spd Definition
km/h
Visibility Definition
km
Stn Press Definition
kPa
Hmdx Definition


Wind Chill Definition


Weather Definition


00:00 4.1 1.6 84 0.0 33 22   100.60     LegendNANA
01:00 3.8 1.3 84 0.0 32 18   100.58     LegendNANA
02:00 3.4 1.1 85 0.0 31 18   100.57     LegendNANA
03:00 3.5 1.4 86 0.0 33 23   100.58     LegendNANA
04:00 3.8 1.7 86 0.0 32 20   100.59     LegendNANA
05:00 5.4 1.2 75 0.0 35 19   100.61     LegendNANA
06:00 5.9 0.5 68 0.0 36 29   100.64     LegendNANA
07:00 6.7 0.9 66 0.0 35 22   100.66     LegendNANA
08:00 7.0 1.1 66 0.0 33 26   100.68     LegendNANA
09:00 7.7 1.5 65 0.0 32 27   100.71     LegendNANA
10:00 8.4 1.8 63 0.0 32 27   100.71     LegendNANA
11:00 9.1 -1.1 49 0.0 36 24   100.68     LegendNANA
12:00 9.3 -0.6 50 0.0 33 21   100.69     LegendNANA
13:00 9.7 0.0 51 0.0 32 24   100.66     LegendNANA
14:00 9.8 -0.2 50 0.0 32 23   100.69     LegendNANA
15:00 10.1 0.7 52 0.0 33 29   100.69     LegendNANA
16:00 10.2 1.6 55 0.2 33 29   100.71     LegendNANA
17:00 9.0 2.1 62 0.0 33 24   100.72     LegendNANA
18:00 8.8 1.3 59 0.0 32 22   100.74     LegendNANA
19:00 9.2 1.5 58 0.0 34 20   100.75     LegendNANA
20:00 8.5 0.2 56 0.0 32 16   100.75     LegendNANA
21:00 6.3 0.5 67 0.0 32 9   100.75     LegendNANA
22:00 4.1 -0.2 74 0.0 32 9   100.76     LegendNANA
23:00 4.5 0.8 77 0.0 32 10   100.78     LegendNANA

Notes on Data Quality.

Legend

  • E = Estimated
  • M = Missing
  • NA = Not Available*
  • [empty] = Indicates an unobserved value
Date modified: